Lapse_Rate
6.6 6.7 6.7 7.0 7.7 8.6 9.6 9.5 9.2 9.2 9.3 8.2 8.6 9.0 8.5 8.0 8.3 7.6 7.9 8.8 8.6 8.6 8.6 8.5 8.7 8.7 8.5 8.6 8.6 8.6 8.5 7.7 7.5 7.8 7.4 7.0 6.6 6.4 6.2 5.9 5.9 6.0 6.4 6.7 6.8 6.7 6.9 7.1 7.0
7.2 7.1 7.1 7.8 8.4 9.7 9.7 9.3 9.2 9.4 8.1 8.2 8.6 8.9 8.7 8.1 7.6 8.3 7.5 8.4 8.5 8.6 8.7 8.6 8.6 8.5 8.4 8.6 8.5 8.6 8.4 7.7 7.5 8.2 7.8 7.2 6.5 6.2 5.9 5.9 6.0 6.2 5.9 6.1 6.5 6.6 6.7 7.1 7.0
7.3 7.4 7.5 8.4 9.3 9.5 9.5 9.5 8.9 8.3 8.3 8.9 8.7 8.6 8.6 7.7 8.8 8.3 8.2 8.3 8.4 8.4 8.5 8.6 8.5 8.5 8.4 8.5 8.5 8.3 8.4 8.0 7.7 7.7 7.5 7.4 7.2 7.2 7.1 6.7 6.6 6.4 6.6 5.8 5.9 5.9 6.5 6.7 6.8
7.4 7.5 7.9 8.7 9.7 8.9 8.9 8.2 8.2 8.7 8.5 8.6 8.9 8.4 8.8 8.7 8.7 8.6 8.4 8.4 8.6 8.6 8.6 8.4 8.4 8.4 8.5 8.4 8.2 8.1 8.2 8.0 7.8 7.6 7.4 6.9 6.9 7.2 7.2 7.0 6.7 6.2 6.6 5.6 6.2 6.0 6.1 6.7 6.8
7.8 8.2 9.3 9.6 8.6 8.3 8.4 8.3 8.5 9.2 8.8 8.5 8.9 8.5 8.7 8.7 8.7 8.7 8.6 8.4 8.3 8.2 8.2 8.2 8.2 8.1 8.1 7.9 7.9 7.7 7.7 7.7 7.6 7.5 7.2 6.8 6.5 6.7 7.3 7.0 6.7 6.5 6.4 5.0 6.1 6.6 6.6 6.6 6.9
8.3 8.6 9.6 9.7 8.6 8.5 8.2 8.3 8.5 8.5 8.3 8.5 9.1 8.1 8.0 8.7 8.6 8.5 8.5 8.4 8.2 8.1 8.1 8.1 7.9 7.8 7.7 7.7 7.7 7.6 7.4 7.4 7.5 7.4 7.6 7.2 6.7 6.6 6.7 7.0 7.1 6.6 6.4 6.2 6.3 6.5 6.6 7.0 6.9
8.6 9.6 9.6 9.5 8.8 8.5 8.1 8.1 8.2 8.4 8.4 8.3 8.5 8.9 8.1 8.6 8.6 8.5 8.4 8.3 8.2 8.0 7.9 7.8 7.6 7.5 7.5 7.5 7.5 7.5 7.4 7.4 7.4 7.5 7.5 7.4 7.0 6.7 6.7 6.9 7.1 7.4 7.6 7.0 6.8 6.8 6.9 6.9 6.9
8.5 9.3 9.6 9.6 9.6 8.5 8.1 8.0 8.0 8.1 8.0 8.2 8.3 9.2 7.7 8.2 8.3 8.3 8.3 8.2 8.2 8.0 7.8 7.6 7.4 7.3 7.3 7.3 7.3 7.2 7.3 7.5 7.6 7.4 7.3 7.3 7.2 6.8 6.4 6.4 6.4 6.4 7.0 7.2 7.3 6.8 6.9 6.6 6.8
8.5 9.6 9.6 9.0 9.5 8.5 8.2 8.4 7.8 8.1 7.9 7.9 8.1 8.1 8.0 8.0 8.0 8.0 8.0 8.0 7.9 7.8 7.6 7.5 7.4 7.3 7.2 7.2 7.2 7.1 7.1 7.1 7.1 7.2 7.1 7.0 7.0 6.9 6.9 6.7 6.5 6.6 6.4 6.8 7.1 7.0 7.0 6.9 6.5
9.3 9.7 8.6 8.2 8.3 8.5 8.3 8.2 7.9 8.0 8.0 7.8 7.9 8.0 8.0 8.0 7.9 7.9 7.9 7.8 7.8 7.7 7.5 7.3 7.2 7.2 7.2 7.1 7.1 7.0 6.8 6.7 6.7 6.8 6.9 6.8 6.8 6.8 6.3 6.2 6.3 6.3 6.5 6.2 6.3 7.0 7.0 7.0 6.7
8.5 8.6 8.2 8.1 7.9 7.9 8.1 8.1 7.9 8.3 8.5 8.2 7.9 7.4 7.9 8.0 7.9 7.9 7.8 7.7 7.5 7.4 7.2 7.2 7.2 7.3 7.2 7.1 7.1 7.1 7.0 6.8 6.8 6.8 6.8 6.8 6.7 6.8 6.7 6.5 6.6 6.6 6.9 6.5 5.8 5.8 6.0 6.0 6.0
7.9 7.7 7.7 7.6 7.5 7.5 7.7 7.7 7.8 7.6 7.9 7.8 7.5 7.2 7.7 7.7 7.7 7.7 7.6 7.5 7.3 7.3 7.3 7.3 7.3 7.2 7.2 7.1 7.1 7.2 7.2 7.0 7.0 6.9 6.9 6.9 7.0 6.9 7.0 7.1 6.7 6.5 6.6 6.7 6.3 5.7 5.0 5.3 5.2
7.9 7.6 7.4 7.3 7.2 7.3 7.3 7.5 7.4 7.4 7.3 7.3 7.2 7.2 7.2 7.1 7.1 7.2 7.2 7.2 7.2 7.1 7.0 7.0 7.0 6.9 7.0 6.9 7.0 6.9 6.8 6.7 6.7 6.7 6.7 6.7 6.6 6.7 6.7 6.7 6.8 6.9 6.8 6.8 6.6 5.9 5.7 5.3 5.4
7.6 7.6 7.5 7.5 7.5 7.3 7.3 7.6 7.5 7.7 7.5 7.5 7.3 7.3 7.2 7.2 7.1 7.0 6.9 6.9 6.8 6.8 6.8 6.7 6.8 6.9 6.9 6.8 6.7 6.6 6.5 6.4 6.3 6.3 6.4 6.4 6.3 6.3 6.3 6.2 6.2 6.3 6.4 6.4 6.4 6.5 6.4 6.1 5.9
7.4 7.7 7.6 7.5 7.6 7.4 7.6 7.9 7.6 7.7 7.5 7.5 7.7 7.6 7.4 6.9 7.2 7.1 6.9 6.7 6.7 6.8 6.8 7.0 7.0 7.0 7.1 7.0 6.9 6.7 6.7 6.6 6.5 6.4 6.3 6.3 6.3 6.3 6.3 6.3 6.1 6.1 6.2 6.3 6.1 6.2 6.5 6.8 7.2
7.6 7.9 8.9 8.2 7.5 7.6 7.5 8.4 8.3 7.8 7.2 7.0 7.0 6.9 7.0 7.3 7.3 7.2 7.2 7.1 7.2 7.2 7.2 7.2 7.1 7.2 7.1 7.1 7.0 6.9 7.0 6.9 7.0 6.9 6.8 6.7 6.4 6.3 6.2 6.3 6.2 6.2 6.2 6.4 6.5 6.5 6.3 6.5 6.6
8.5 8.8 8.3 8.0 7.9 7.5 7.6 8.0 8.1 8.0 7.7 7.3 7.2 7.2 7.1 6.6 6.6 7.3 7.3 7.2 7.1 6.9 6.7 6.7 6.7 6.7 6.8 6.7 6.5 6.6 6.6 6.5 6.5 6.4 6.4 6.2 6.1 6.0 6.0 6.1 6.1 6.3 6.3 6.2 6.5 6.8 6.6 6.3 6.3
8.1 8.0 8.0 8.1 8.1 7.5 7.5 7.8 8.0 8.0 8.0 8.1 7.8 7.4 7.2 7.2 6.7 6.3 7.2 7.1 6.8 6.7 6.6 6.5 6.5 6.6 6.5 6.5 6.5 6.3 6.1 6.0 6.0 5.7 5.6 5.5 5.5 5.5 5.5 5.6 5.8 6.0 6.1 6.1 6.2 6.4 6.7 6.7 6.4
7.3 7.5 7.8 8.0 7.4 7.2 7.5 7.6 8.0 8.2 8.0 7.8 7.5 7.2 7.0 6.9 6.8 6.2 6.9 6.8 6.8 6.6 6.6 6.3 6.4 6.4 6.3 6.1 6.1 5.9 5.9 5.7 5.5 5.3 5.3 5.3 5.2 5.2 5.3 5.4 5.3 5.4 5.5 5.7 5.8 6.0 6.2 6.3 6.3
7.7 7.8 8.0 7.7 7.3 7.0 7.6 7.8 8.1 7.6 7.3 7.0 6.9 6.7 6.8 7.1 7.0 6.9 6.7 6.7 6.6 6.5 6.5 6.4 6.4 6.1 6.1 5.7 5.7 5.6 5.2 5.1 5.1 4.9 4.8 4.9 4.9 5.2 5.5 5.4 5.3 5.1 5.2 5.2 5.2 5.3 5.5 5.8 6.0
7.5 7.3 7.1 7.0 7.0 7.6 7.6 8.9 8.5 7.6 7.3 6.9 6.8 6.8 6.5 6.7 6.5 6.5 6.6 6.4 6.4 6.5 6.3 6.3 6.1 6.1 6.1 6.0 5.4 5.4 5.4 5.4 5.1 4.8 4.6 4.7 5.0 5.3 5.2 5.4 5.5 5.3 5.0 4.9 4.9 5.2 5.2 5.0 5.4
7.4 7.0 6.5 6.8 7.0 7.9 7.5 8.8 8.6 8.0 7.7 7.1 6.8 6.7 6.4 6.5 6.5 6.6 6.5 6.5 6.6 6.6 6.3 6.1 5.9 5.7 5.5 5.7 5.8 5.8 5.8 5.7 5.3 4.6 4.5 4.7 4.6 4.1 4.1 4.1 4.1 4.4 4.9 5.0 4.9 4.4 5.1 5.1 4.9
6.7 7.0 6.4 6.6 6.7 7.1 7.7 7.8 9.6 7.9 7.8 7.5 7.1 6.7 6.5 7.0 6.9 6.7 6.5 6.4 6.3 6.2 6.1 6.0 5.7 5.6 5.6 5.5 5.8 5.7 5.8 5.8 5.7 5.5 5.3 5.3 5.0 4.5 4.5 4.6 4.4 4.2 4.3 4.4 4.6 4.4 4.5 5.1 4.9
7.0 6.8 7.4 7.1 6.9 7.6 8.0 7.7 8.8 9.1 7.9 7.3 7.1 6.6 6.3 6.3 6.5 6.3 5.9 5.7 6.1 5.9 5.7 5.6 5.5 5.6 5.5 5.5 5.6 5.5 5.4 5.6 5.6 5.4 5.2 5.3 5.1 5.0 4.8 4.7 4.8 4.7 4.6 4.7 4.7 4.8 4.8 4.7 4.8
6.6 6.9 7.6 7.9 8.1 8.5 7.5 7.3 8.3 8.4 7.5 7.1 6.7 6.3 6.0 5.6 5.4 5.3 5.2 5.1 5.1 5.4 5.2 5.3 5.3 5.3 5.3 5.0 5.1 5.3 5.5 5.6 5.6 5.4 5.2 5.1 4.8 4.9 5.2 5.1 4.9 4.9 4.8 4.7 4.9 4.9 4.8 5.1 5.2
6.1 6.3 6.8 6.5 7.7 7.7 7.5 7.8 8.6 8.0 7.4 7.0 6.3 5.8 5.5 5.5 5.2 5.1 5.0 4.9 5.0 5.3 5.3 5.5 5.4 5.3 5.3 5.2 5.1 5.4 5.5 5.6 5.3 5.3 5.4 5.5 5.5 5.3 5.3 5.3 5.4 5.2 5.2 5.1 5.1 5.0 4.7 4.9 4.9
6.3 6.5 6.0 6.0 6.1 5.7 6.6 7.7 7.6 8.1 7.8 7.3 6.5 6.2 6.1 5.5 5.3 5.2 5.0 4.8 4.9 4.7 4.8 5.3 5.2 5.4 5.2 5.1 5.1 5.3 5.4 5.0 5.1 5.2 5.7 5.9 5.7 5.5 5.5 5.6 5.4 5.2 5.1 5.2 5.2 5.0 4.7 4.7 4.6
6.1 6.0 6.1 6.0 5.9 6.6 7.7 7.7 7.9 8.4 8.7 8.4 7.4 6.7 5.9 5.6 5.4 5.3 5.0 4.9 4.7 5.4 5.7 5.1 5.5 5.6 5.4 5.3 5.2 5.5 5.2 5.3 5.2 5.5 5.6 5.9 5.9 6.0 5.6 5.5 5.0 5.0 4.9 4.9 4.7 4.6 4.6 4.4 4.3
6.1 6.4 6.1 6.4 6.6 6.6 6.6 7.4 7.8 7.7 7.6 7.6 7.3 6.5 6.2 5.7 5.3 5.2 5.1 5.0 5.0 5.0 5.7 5.8 6.0 5.9 5.5 5.3 5.6 5.6 5.6 5.4 5.3 5.8 5.9 5.8 5.8 5.7 5.3 4.8 4.8 4.7 4.6 4.5 4.4 4.1 3.8 3.6 3.8
6.0 6.3 6.4 6.3 6.5 6.5 6.4 5.4 7.1 7.1 7.2 6.9 6.5 6.5 6.2 5.9 5.5 5.4 5.2 5.0 5.1 5.0 5.9 6.0 6.0 5.9 5.8 5.8 5.6 5.6 5.5 5.4 5.7 6.1 6.1 5.8 5.6 5.0 4.8 4.7 4.7 4.6 4.4 4.2 3.9 3.9 4.1 4.5 4.6
Wind_Speed
19 12 6 5 7 7 14 8 8 5 9 10 7 13 19 20 16 6 10 12 6 7 4 7 3 1 1 3 2 3 6 8 8 2 6 8 4 12 11 7 6 9 18 8 9 11 11 9 7
12 7 7 8 9 8 5 14 7 10 9 2 4 5 13 17 15 13 9 9 6 3 6 11 6 2 1 2 1 2 4 8 11 11 7 1 12 7 10 7 8 15 11 17 10 9 10 11 11
11 8 10 5 9 7 11 6 10 4 2 5 4 12 8 9 16 7 10 9 8 9 7 11 8 7 6 5 3 5 6 10 13 11 9 9 11 15 10 12 9 11 14 20 13 7 7 8 8
6 6 5 9 3 12 11 8 0 6 5 2 6 9 8 6 3 10 12 8 9 9 6 10 8 6 5 4 4 5 6 8 10 14 15 11 6 11 11 12 12 12 17 17 13 17 12 9 7
8 6 5 6 7 6 9 4 1 2 8 3 6 11 7 6 6 9 8 5 5 7 7 7 5 4 4 5 6 7 8 9 9 10 10 7 8 10 5 3 3 8 7 17 4 4 10 6 4
7 6 7 7 9 10 10 8 7 7 7 2 9 11 6 7 6 4 6 4 4 7 7 8 9 5 4 5 5 5 6 6 7 7 8 8 9 9 7 8 10 7 5 10 7 8 7 5 2
14 8 12 9 10 8 8 7 7 5 6 6 2 6 11 9 6 4 3 4 3 3 3 2 2 7 8 7 5 4 4 5 5 6 6 7 8 8 12 20 21 21 17 15 3 7 6 5 4
6 2 6 4 7 8 3 6 3 9 8 1 5 3 12 9 9 7 5 3 2 1 2 2 2 2 2 5 8 4 5 5 5 6 5 8 10 11 15 14 19 23 22 27 23 6 3 4 2
9 5 7 4 2 5 4 3 5 1 1 1 2 5 7 11 10 8 7 6 3 1 2 3 6 4 5 4 3 7 8 6 9 9 6 9 9 8 6 10 16 16 17 22 26 27 19 1 2
9 5 7 4 3 6 2 6 4 6 6 6 4 3 6 9 8 7 6 4 2 1 2 3 4 5 6 3 2 3 7 6 4 2 2 2 2 1 1 5 3 7 10 11 13 14 20 19 13
9 10 1 4 8 9 10 6 3 9 9 1 6 8 8 9 8 6 5 1 1 1 3 4 3 3 5 3 4 9 5 5 4 1 1 4 1 1 5 3 3 1 3 3 7 5 7 12 16
8 6 6 7 6 7 8 9 8 7 8 6 5 6 9 9 7 6 5 3 4 2 1 2 2 1 2 1 1 4 4 4 4 5 3 4 2 2 1 1 3 1 3 2 2 2 6 13 14
5 4 2 1 2 4 5 7 8 10 1 3 2 5 8 8 8 5 4 3 3 4 1 0 1 1 1 1 4 5 3 4 3 3 5 3 3 3 2 2 1 3 3 3 6 9 9 12 12
2 1 0 3 2 4 9 12 6 11 6 8 9 10 11 10 9 8 7 7 5 3 3 3 4 3 2 3 3 3 3 5 4 4 5 4 4 3 3 1 2 4 7 9 7 6 6 7 8
1 10 5 4 4 8 10 19 10 6 8 11 13 13 13 13 12 12 10 8 7 6 6 6 6 7 6 6 6 5 5 4 4 5 5 6 5 5 3 3 3 4 4 6 8 8 7 6 7
6 7 7 6 4 3 8 13 5 9 10 12 12 13 14 15 15 13 11 10 9 9 9 8 6 7 7 5 6 5 7 6 6 6 7 6 5 3 2 2 3 5 4 3 3 4 5 4 6
4 9 7 8 2 7 7 17 11 7 11 14 14 13 14 14 15 14 13 10 10 8 8 7 6 6 6 5 4 3 5 5 5 6 6 5 4 2 2 2 3 5 4 3 5 5 4 6 6
10 11 11 12 7 10 16 19 15 15 14 14 13 13 13 13 14 13 12 9 10 8 9 9 8 7 7 5 4 5 4 4 6 5 5 5 4 2 2 0 2 5 3 4 4 6 6 6 6
7 11 14 12 7 12 13 20 15 9 6 4 6 5 8 9 9 9 10 10 11 10 11 11 11 9 8 7 7 6 6 6 5 6 5 4 3 5 3 4 3 4 5 4 5 6 8 7 6
12 13 11 11 14 17 17 18 10 6 5 3 2 3 1 2 4 6 10 13 14 14 13 13 13 12 10 8 8 7 7 6 7 6 8 8 6 7 6 4 5 6 6 7 7 7 8 7 7
14 10 16 18 19 17 13 12 6 6 7 6 6 5 4 3 3 4 8 12 13 15 15 14 14 13 12 12 7 6 6 6 7 8 8 12 13 11 9 8 6 6 7 8 8 9 10 9 8
12 10 15 18 17 9 12 7 3 3 7 6 4 4 5 5 3 2 6 8 12 14 13 14 14 14 13 13 11 12 10 10 9 8 6 6 6 9 11 10 9 8 8 9 9 10 10 10 11
9 16 16 15 12 11 3 6 4 5 2 2 2 4 5 7 7 7 8 9 9 10 13 14 15 16 15 13 12 9 10 9 8 7 8 7 7 9 9 10 9 8 8 10 11 12 11 10 11
14 19 20 1 6 6 6 3 11 5 2 2 4 5 5 8 9 10 12 8 9 8 11 13 15 17 17 16 16 13 12 10 8 5 5 3 5 4 5 7 7 8 9 11 11 12 14 12 12
14 13 5 3 5 8 4 7 13 7 4 3 4 6 6 8 9 11 12 12 11 10 11 12 15 18 19 17 16 14 13 11 11 8 5 5 4 5 6 7 7 8 11 12 12 12 13 13 13
8 8 3 5 6 13 17 8 5 1 4 4 3 6 7 7 12 14 14 13 12 13 12 14 17 18 19 18 17 14 13 8 7 6 3 4 5 5 7 8 9 11 13 12 13 11 11 14 13
3 5 5 6 9 6 8 12 16 13 1 1 8 9 9 12 14 13 14 14 13 12 16 17 17 19 18 17 13 12 10 10 8 6 5 5 5 6 9 9 11 12 14 14 14 11 14 13 14
8 7 5 4 5 11 10 16 11 6 8 6 10 10 12 14 14 14 12 12 12 16 18 15 18 18 15 15 9 9 10 9 7 5 5 6 6 9 11 12 13 14 14 15 15 13 15 15 12
7 9 4 5 7 6 10 7 11 22 23 17 11 13 16 15 14 14 15 16 18 18 16 15 15 13 12 10 8 10 9 8 5 4 5 7 8 10 12 14 15 15 16 16 15 17 18 18 17
6 9 10 8 8 9 15 18 20 14 7 8 15 15 15 15 14 14 16 20 20 20 15 14 11 10 9 7 9 9 9 6 5 6 7 8 10 12 14 15 16 17 17 17 18 18 18 18 18
Wind_Direction
288 247 270 260 236 235 242 102 23 149 159 27 42 43 57 40 29 51 64 54 34 50 72 117 74 14 351 86 80 93 81 75 57 135 172 186 131 32 25 80 70 350 293 245 189 194 174 164 171
295 289 237 253 252 208 176 99 197 44 15 118 93 129 78 56 76 63 52 77 129 91 319 71 53 25 292 294 0 14 54 52 56 51 43 71 133 145 235 218 215 262 269 288 232 191 192 166 172
259 256 255 229 238 352 64 114 54 32 93 192 106 15 29 51 42 72 51 64 65 76 35 64 27 352 356 345 350 338 26 29 38 51 53 53 119 146 192 209 224 262 263 242 225 213 161 141 159
242 204 227 239 138 48 37 54 343 180 120 288 87 93 102 22 67 58 68 61 86 63 63 67 21 354 0 348 11 18 32 55 54 46 42 32 33 166 177 222 246 267 292 255 237 202 161 150 137
233 255 229 79 79 71 61 57 157 149 60 67 271 104 89 86 38 40 70 75 71 72 69 97 77 36 24 26 31 31 39 43 50 63 71 51 43 44 78 212 270 259 62 305 297 124 112 109 126
242 268 182 124 107 107 72 53 62 80 101 4 129 123 93 135 139 33 118 123 59 119 149 165 136 122 93 61 41 31 33 39 54 56 64 62 38 53 50 39 45 28 82 149 130 114 102 102 96
262 255 71 109 114 87 66 67 39 65 74 71 9 230 124 153 139 190 140 112 133 103 124 162 153 147 151 129 82 53 47 35 36 54 63 85 85 63 61 59 57 43 43 16 37 116 117 112 94
295 19 131 136 126 87 84 99 25 9 79 96 324 173 166 143 163 197 192 198 230 205 350 313 255 7 308 162 104 86 76 87 95 96 110 132 123 102 90 81 69 68 54 30 13 352 101 108 115
258 231 107 86 44 112 99 257 76 261 280 75 354 333 69 141 167 198 190 207 199 17 4 343 321 320 303 290 86 173 123 136 146 131 131 180 156 141 159 119 101 81 67 59 42 21 342 84 196
283 65 54 6 11 0 123 320 351 259 183 161 173 137 148 168 186 203 208 180 134 35 22 19 338 328 300 289 305 127 46 49 33 78 149 198 195 270 253 116 81 121 107 83 71 16 7 327 283
4 68 101 65 21 322 330 274 283 268 254 147 230 171 181 193 195 206 211 164 211 86 23 8 4 339 290 48 307 99 131 212 128 119 340 87 153 231 248 237 259 291 111 168 88 99 21 317 309
100 48 358 34 352 319 314 329 289 280 311 355 283 173 188 201 204 212 204 210 231 255 344 56 51 43 5 319 126 121 130 140 109 72 108 98 138 120 298 350 332 313 238 240 29 37 190 245 267
70 78 4 84 275 339 325 271 292 287 176 243 188 206 206 214 215 207 245 251 267 257 247 282 93 67 93 86 73 77 115 68 70 64 44 33 70 72 129 107 49 335 339 260 210 215 212 230 258
62 349 97 281 326 246 289 297 249 245 184 206 203 218 225 221 228 218 222 231 237 237 215 206 209 200 190 93 120 134 122 135 90 70 57 56 58 38 68 38 20 20 359 333 297 243 241 243 240
335 264 184 204 330 295 315 266 208 235 196 227 220 226 231 227 227 229 228 230 219 207 194 193 194 184 178 161 173 156 147 143 121 102 81 67 66 64 20 24 2 22 14 1 8 5 328 292 271
263 252 295 99 302 100 283 293 140 202 213 233 235 227 234 235 232 228 226 224 209 208 203 195 199 188 192 166 191 167 158 158 148 140 129 120 102 77 68 28 9 0 340 352 343 344 336 306 294
170 337 341 313 241 305 277 302 299 251 225 249 263 262 230 231 231 230 221 223 214 216 216 208 208 202 199 184 185 165 168 190 162 167 146 142 127 100 16 14 18 332 346 355 337 333 324 321 304
339 333 322 312 357 323 295 287 301 287 272 264 253 247 261 248 228 223 227 217 232 216 225 214 210 203 209 187 198 200 204 189 196 192 156 189 141 140 307 176 320 310 323 339 355 327 321 307 305
298 300 306 344 3 318 302 298 302 322 331 328 295 272 264 265 265 206 204 223 229 223 225 222 215 206 212 209 216 214 222 216 224 220 200 196 204 197 245 306 298 293 305 317 296 309 309 306 308
301 316 344 319 333 314 295 299 289 65 58 62 71 115 58 296 256 215 220 218 227 234 223 226 223 210 218 223 229 242 231 222 238 224 199 239 227 249 258 252 291 308 307 301 300 309 303 299 295
331 346 337 322 322 289 321 257 166 129 118 123 110 100 109 35 337 229 235 234 229 232 238 233 232 232 218 245 229 224 245 255 234 233 232 215 225 251 254 268 284 295 295 295 301 299 300 298 310
306 353 322 317 330 323 343 310 150 111 108 133 90 38 23 11 350 286 289 259 239 244 236 243 242 237 232 225 244 234 240 240 235 237 241 267 271 238 259 263 273 278 285 287 284 282 306 303 293
309 324 302 288 302 312 144 267 199 124 201 131 172 359 350 342 346 325 313 304 270 241 230 233 239 242 239 231 219 249 231 254 260 265 262 270 272 269 268 281 287 288 290 293 299 295 289 288 288
304 309 298 198 246 261 227 286 285 160 41 285 317 330 328 320 322 318 318 294 287 254 238 238 240 245 239 240 230 232 250 253 263 279 275 279 280 308 284 297 305 302 298 289 288 292 292 288 285
330 333 322 307 226 284 122 277 255 291 191 259 312 309 322 340 319 317 317 314 305 266 248 239 243 247 247 236 235 236 243 253 256 253 244 281 305 287 309 320 318 304 301 297 291 285 282 280 278
313 327 322 294 307 304 304 254 208 247 169 216 244 277 258 281 346 329 324 323 309 297 266 265 249 249 248 244 234 235 243 237 232 229 220 244 255 277 291 290 289 290 291 289 286 282 277 276 272
27 286 1 270 264 270 262 266 255 261 177 123 249 298 336 343 311 315 325 322 311 285 283 281 272 266 250 248 240 230 216 216 204 181 211 252 276 280 280 296 288 283 282 281 281 277 276 276 276
272 350 258 199 293 301 295 309 286 246 247 313 305 356 321 303 328 328 324 321 317 312 305 286 287 270 259 251 223 215 204 200 199 204 234 259 280 281 293 295 291 289 285 283 280 277 275 273 271
279 262 228 275 279 284 298 267 323 307 309 312 323 301 315 331 335 331 325 324 320 313 302 295 287 279 263 237 188 209 199 197 203 221 259 273 293 291 292 290 289 285 281 278 277 275 272 268 269
270 274 273 281 288 285 294 287 278 274 300 297 283 306 337 334 331 326 333 327 322 317 309 295 278 268 248 190 188 197 202 194 217 242 275 287 287 289 284 283 281 280 279 277 274 273 272 274 274